DLH5GI EDDM-EDDL

Flight info

Callsign DLH5GI
Flight time 0h 53m
Altitude 32000
Route GIVMI Y101 INBED DCT REKDI DCT LOHRE Z850 ARPEG/N0397F240 Z850 ADEMI T854 DOMUX
Aircraft A20N/M-SDE2E3FGHIRWXY/LB1

Departure

Time 2026-05-07 18:28
Airport Munich Airport (EDDM)

Arrival

Time 2026-05-07 19:21
Airport Düsseldorf Airport (EDDL)
Time Latitude Longitude Altitude Speed Heading
2026-05-07 17:44 48.35621 11.79730 1485 ft 0 kts 83°
2026-05-07 18:15 48.35618 11.79700 1485 ft 4 kts 83°
2026-05-07 18:15 48.35615 11.79660 1485 ft 4 kts 82°
2026-05-07 18:15 48.35611 11.79620 1485 ft 4 kts 78°
2026-05-07 18:16 48.35603 11.79582 1485 ft 4 kts 54°
2026-05-07 18:16 48.35590 11.79566 1485 ft 0 kts 353°
2026-05-07 18:18 48.35591 11.79566 1485 ft 1 kts 353°
2026-05-07 18:19 48.35613 11.79562 1485 ft 5 kts 353°
2026-05-07 18:19 48.35664 11.79553 1476 ft 9 kts 353°
2026-05-07 18:19 48.35742 11.79540 1479 ft 13 kts 353°
2026-05-07 18:19 48.35845 11.79522 1473 ft 17 kts 353°
2026-05-07 18:20 48.35963 11.79500 1479 ft 13 kts 352°
2026-05-07 18:20 48.36003 11.79494 1485 ft 1 kts 354°
2026-05-07 18:20 48.36024 11.79490 1476 ft 5 kts 354°
2026-05-07 18:20 48.36062 11.79484 1485 ft 5 kts 353°
2026-05-07 18:21 48.36103 11.79502 1471 ft 8 kts 47°
2026-05-07 18:21 48.36115 11.79598 1485 ft 11 kts 83°
2026-05-07 18:21 48.36125 11.79735 1475 ft 15 kts 83°
2026-05-07 18:21 48.36139 11.79913 1475 ft 19 kts 83°
2026-05-07 18:22 48.36155 11.80120 1485 ft 16 kts 83°
2026-05-07 18:22 48.36163 11.80226 1482 ft 17 kts 83°
2026-05-07 18:22 48.36184 11.80493 1485 ft 22 kts 83°
2026-05-07 18:22 48.36202 11.80728 1485 ft 20 kts 83°
2026-05-07 18:23 48.36220 11.80942 1481 ft 22 kts 83°
2026-05-07 18:23 48.36238 11.81192 1482 ft 26 kts 84°
2026-05-07 18:23 48.36254 11.81403 1478 ft 18 kts 83°
2026-05-07 18:23 48.36269 11.81609 1483 ft 22 kts 83°
2026-05-07 18:24 48.36285 11.81811 1485 ft 18 kts 83°
2026-05-07 18:24 48.36348 11.81970 1480 ft 15 kts 38°
2026-05-07 18:24 48.36445 11.82003 1485 ft 16 kts 354°
2026-05-07 18:24 48.36554 11.81984 1485 ft 8 kts 352°
2026-05-07 18:25 48.36562 11.81983 1485 ft 1 kts 352°
2026-05-07 18:25 48.36585 11.81978 1485 ft 5 kts 353°
2026-05-07 18:25 48.36635 11.81964 1485 ft 9 kts 336°
2026-05-07 18:25 48.36668 11.81870 1472 ft 12 kts 270°
2026-05-07 18:26 48.36667 11.81851 1485 ft 0 kts 265°
2026-05-07 18:27 48.36655 11.81667 1485 ft 57 kts 263°
2026-05-07 18:27 48.36576 11.80627 1485 ft 138 kts 264°
2026-05-07 18:27 48.36458 11.78970 1896 ft 167 kts 264°
2026-05-07 18:28 48.36332 11.77227 2822 ft 171 kts 264°
2026-05-07 18:28 48.36201 11.75426 3671 ft 179 kts 265°
2026-05-07 18:28 48.36055 11.73361 3976 ft 217 kts 264°
2026-05-07 18:28 48.35882 11.70906 4333 ft 254 kts 264°
2026-05-07 18:29 48.35898 11.68259 5412 ft 262 kts 284°
2026-05-07 18:29 48.36718 11.65692 6060 ft 286 kts 306°
2026-05-07 18:29 48.37981 11.63286 6922 ft 299 kts 307°
2026-05-07 18:29 48.39264 11.60743 7721 ft 315 kts 306°
2026-05-07 18:30 48.40682 11.57860 6934 ft 376 kts 306°
2026-05-07 18:30 48.42263 11.54646 7478 ft 365 kts 305°
2026-05-07 18:30 48.43363 11.52012 7787 ft 361 kts 300°
2026-05-07 18:30 48.44861 11.49418 8119 ft 375 kts 326°
2026-05-07 18:31 48.47233 11.48270 8893 ft 339 kts
2026-05-07 18:31 48.49388 11.48748 9559 ft 291 kts
2026-05-07 18:31 48.51380 11.48703 9300 ft 288 kts 341°
2026-05-07 18:31 48.53193 11.47492 8914 ft 284 kts 330°
2026-05-07 18:32 48.54899 11.46019 8754 ft 283 kts 325°
2026-05-07 18:32 48.56598 11.44370 9342 ft 298 kts 326°
2026-05-07 18:32 48.58366 11.42665 10169 ft 304 kts 326°
2026-05-07 18:32 48.60105 11.41002 11015 ft 307 kts 326°
2026-05-07 18:33 48.61478 11.39795 11553 ft 312 kts 330°
2026-05-07 18:33 48.63438 11.38286 12263 ft 321 kts 331°
2026-05-07 18:33 48.65436 11.36650 12724 ft 335 kts 328°
2026-05-07 18:33 48.67498 11.34820 13021 ft 353 kts 327°
2026-05-07 18:34 48.69627 11.32778 13289 ft 371 kts 326°
2026-05-07 18:34 48.71724 11.30756 13603 ft 383 kts 327°
2026-05-07 18:34 48.73996 11.28623 14269 ft 386 kts 327°
2026-05-07 18:34 48.76298 11.26499 14910 ft 389 kts 327°
2026-05-07 18:35 48.78627 11.24366 15522 ft 393 kts 328°
2026-05-07 18:35 48.80833 11.22348 16075 ft 396 kts 328°
2026-05-07 18:35 48.83202 11.20180 16689 ft 399 kts 328°
2026-05-07 18:35 48.85588 11.17992 17284 ft 403 kts 328°
2026-05-07 18:36 48.87989 11.15785 17890 ft 406 kts 328°
2026-05-07 18:36 48.90416 11.13554 18467 ft 409 kts 328°
2026-05-07 18:36 48.92857 11.11310 19013 ft 412 kts 328°
2026-05-07 18:36 48.95318 11.09045 19567 ft 415 kts 328°
2026-05-07 18:37 48.97324 11.07193 19980 ft 417 kts 328°
2026-05-07 18:37 48.99663 11.05031 20455 ft 419 kts 328°
2026-05-07 18:37 49.02167 11.02714 20957 ft 422 kts 328°
2026-05-07 18:37 49.04685 11.00382 21464 ft 425 kts 328°
2026-05-07 18:38 49.07221 10.98031 21960 ft 428 kts 328°
2026-05-07 18:38 49.09739 10.95692 22435 ft 430 kts 328°
2026-05-07 18:38 49.12303 10.93309 22880 ft 433 kts 328°
2026-05-07 18:38 49.14684 10.91092 23250 ft 435 kts 328°
2026-05-07 18:39 49.17291 10.88667 23640 ft 438 kts 328°
2026-05-07 18:39 49.19871 10.86267 24008 ft 440 kts 328°
2026-05-07 18:39 49.22490 10.83825 24369 ft 442 kts 328°
2026-05-07 18:39 49.24903 10.81570 24647 ft 444 kts 328°
2026-05-07 18:40 49.27544 10.79098 24914 ft 447 kts 328°
2026-05-07 18:40 49.30195 10.76613 25260 ft 446 kts 328°
2026-05-07 18:40 49.32836 10.74135 25658 ft 445 kts 328°
2026-05-07 18:40 49.35476 10.71657 26024 ft 444 kts 328°
2026-05-07 18:41 49.38096 10.69149 26360 ft 444 kts 323°
2026-05-07 18:41 49.40483 10.66213 26703 ft 442 kts 317°
2026-05-07 18:41 49.42733 10.62999 27044 ft 441 kts 316°
2026-05-07 18:41 49.44944 10.59736 27402 ft 440 kts 316°
2026-05-07 18:42 49.46974 10.56791 27702 ft 440 kts 316°
2026-05-07 18:42 49.49165 10.53682 28041 ft 439 kts 317°
2026-05-07 18:42 49.51291 10.50705 28356 ft 438 kts 317°
2026-05-07 18:42 49.53546 10.47561 28724 ft 437 kts 317°
2026-05-07 18:43 49.55797 10.44418 29084 ft 436 kts 317°
2026-05-07 18:43 49.57871 10.41511 29445 ft 434 kts 317°
2026-05-07 18:43 49.60101 10.38374 29802 ft 433 kts 317°
2026-05-07 18:43 49.62155 10.35480 30135 ft 432 kts 317°
2026-05-07 18:44 49.64375 10.32353 30449 ft 432 kts 317°
2026-05-07 18:44 49.66504 10.29352 30763 ft 432 kts 317°
2026-05-07 18:44 49.68598 10.26394 31024 ft 433 kts 317°
2026-05-07 18:44 49.70813 10.23261 31334 ft 429 kts 317°
2026-05-07 18:45 49.73027 10.20126 31430 ft 435 kts 317°
2026-05-07 18:45 49.77458 10.13838 31413 ft 441 kts 317°
2026-05-07 18:46 49.81926 10.07486 31406 ft 441 kts 317°
2026-05-07 18:46 49.86352 10.01169 31402 ft 441 kts 317°
2026-05-07 18:47 49.90890 9.94679 31397 ft 441 kts 317°
2026-05-07 18:47 49.95209 9.88488 31396 ft 441 kts 317°
2026-05-07 18:48 49.99720 9.82002 31396 ft 441 kts 317°
2026-05-07 18:48 50.03951 9.75906 31393 ft 441 kts 317°
2026-05-07 18:49 50.08306 9.69615 31404 ft 441 kts 317°
2026-05-07 18:49 50.12666 9.63300 31402 ft 441 kts 316°
2026-05-07 18:50 50.16290 9.58034 31400 ft 441 kts 316°
2026-05-07 18:50 50.20552 9.51837 31397 ft 440 kts 316°
2026-05-07 18:51 50.24939 9.45431 31393 ft 441 kts 316°
2026-05-07 18:51 50.29423 9.38865 31387 ft 440 kts 316°
2026-05-07 18:51 50.31654 9.35593 31257 ft 440 kts 316°
2026-05-07 18:52 50.33739 9.32536 31099 ft 438 kts 316°
2026-05-07 18:52 50.38005 9.26269 31282 ft 439 kts 316°
2026-05-07 18:52 50.40233 9.22984 31386 ft 440 kts 316°
2026-05-07 18:53 50.42464 9.19689 31387 ft 440 kts 316°
2026-05-07 18:53 50.46861 9.13187 31381 ft 440 kts 316°
2026-05-07 18:54 50.51311 9.06586 31379 ft 440 kts 316°
2026-05-07 18:54 50.55534 9.00297 31381 ft 440 kts 316°
2026-05-07 18:55 50.59914 8.93770 31097 ft 425 kts 316°
2026-05-07 18:55 50.62041 8.90599 30174 ft 420 kts 316°
2026-05-07 18:55 50.64164 8.87418 29018 ft 422 kts 316°
2026-05-07 18:55 50.66295 8.84218 27826 ft 424 kts 316°
2026-05-07 18:56 50.68434 8.81007 26602 ft 425 kts 316°
2026-05-07 18:56 50.70580 8.77788 25325 ft 427 kts 316°
2026-05-07 18:56 50.72533 8.74855 24677 ft 429 kts 316°
2026-05-07 18:56 50.74714 8.71571 24776 ft 439 kts 316°
2026-05-07 18:57 50.77021 8.68098 24795 ft 442 kts 316°
2026-05-07 18:57 50.79241 8.64749 24780 ft 441 kts 316°
2026-05-07 18:57 50.81456 8.61393 24773 ft 441 kts 316°
2026-05-07 18:57 50.83669 8.58035 24771 ft 441 kts 316°
2026-05-07 18:58 50.85887 8.54673 24765 ft 441 kts 316°
2026-05-07 18:58 50.88097 8.51327 24639 ft 438 kts 316°
2026-05-07 18:58 50.90155 8.48206 23934 ft 428 kts 316°
2026-05-07 18:58 50.92269 8.44986 22852 ft 425 kts 315°
2026-05-07 18:59 50.94371 8.41773 22155 ft 416 kts 315°
2026-05-07 18:59 50.96449 8.38594 21641 ft 415 kts 315°
2026-05-07 18:59 50.98528 8.35416 21170 ft 414 kts 315°
2026-05-07 18:59 51.00571 8.32303 20735 ft 412 kts 317°
2026-05-07 19:00 51.02829 8.29527 20274 ft 410 kts 327°
2026-05-07 19:00 51.05273 8.27218 19822 ft 407 kts 330°
2026-05-07 19:00 51.07758 8.25076 19364 ft 406 kts 331°
2026-05-07 19:00 51.10213 8.22969 18921 ft 404 kts 331°
2026-05-07 19:01 51.12670 8.20826 18477 ft 401 kts 330°
2026-05-07 19:01 51.15101 8.18671 18010 ft 399 kts 330°
2026-05-07 19:01 51.17513 8.16514 17570 ft 397 kts 330°
2026-05-07 19:01 51.19906 8.14369 17119 ft 394 kts 330°
2026-05-07 19:02 51.22292 8.12235 16670 ft 392 kts 330°
2026-05-07 19:02 51.24661 8.10118 16214 ft 389 kts 330°
2026-05-07 19:02 51.26904 8.08110 15785 ft 387 kts 330°
2026-05-07 19:02 51.29241 8.06014 15344 ft 385 kts 330°
2026-05-07 19:03 51.31569 8.03923 14865 ft 382 kts 330°
2026-05-07 19:03 51.33876 8.01846 14389 ft 379 kts 329°
2026-05-07 19:03 51.35928 7.99258 14056 ft 376 kts 308°
2026-05-07 19:03 51.37231 7.95640 14030 ft 378 kts 288°
2026-05-07 19:04 51.37655 7.91503 14035 ft 379 kts 267°
2026-05-07 19:04 51.37253 7.87344 14038 ft 379 kts 256°
2026-05-07 19:04 51.36589 7.83262 14046 ft 379 kts 254°
2026-05-07 19:04 51.35848 7.79235 13879 ft 376 kts 253°
2026-05-07 19:05 51.35072 7.75252 13346 ft 374 kts 252°
2026-05-07 19:05 51.34287 7.71315 12725 ft 370 kts 252°
2026-05-07 19:05 51.33507 7.67413 11971 ft 366 kts 252°
2026-05-07 19:05 51.32739 7.63565 11247 ft 360 kts 252°
2026-05-07 19:06 51.31989 7.59813 11088 ft 364 kts 252°
2026-05-07 19:06 51.30440 7.52080 11098 ft 366 kts 252°
2026-05-07 19:06 51.29668 7.48242 11097 ft 353 kts 252°
2026-05-07 19:07 51.28953 7.44693 11093 ft 326 kts 252°
2026-05-07 19:07 51.28267 7.41296 11094 ft 315 kts 252°
2026-05-07 19:07 51.27599 7.37977 11097 ft 314 kts 252°
2026-05-07 19:07 51.26927 7.34653 11095 ft 314 kts 252°
2026-05-07 19:08 51.26254 7.31335 11096 ft 315 kts 252°
2026-05-07 19:08 51.25611 7.28166 11094 ft 315 kts 252°
2026-05-07 19:08 51.24982 7.25064 11094 ft 314 kts 252°
2026-05-07 19:08 51.24307 7.21744 11094 ft 315 kts 252°
2026-05-07 19:09 51.23816 7.19332 10996 ft 311 kts 252°
2026-05-07 19:09 51.23116 7.15914 10287 ft 312 kts 252°
2026-05-07 19:09 51.22448 7.12652 9770 ft 307 kts 252°
2026-05-07 19:09 51.21796 7.09479 9467 ft 296 kts 252°
2026-05-07 19:10 51.21238 7.06757 9183 ft 288 kts 252°
2026-05-07 19:10 51.20628 7.03785 8815 ft 283 kts 252°
2026-05-07 19:10 51.20017 7.00818 8475 ft 278 kts 252°
2026-05-07 19:10 51.19428 6.97967 8365 ft 264 kts 252°
2026-05-07 19:11 51.18866 6.95260 8282 ft 251 kts 252°
2026-05-07 19:11 51.18327 6.92676 8155 ft 241 kts 252°
2026-05-07 19:11 51.17795 6.90132 7785 ft 244 kts 252°
2026-05-07 19:11 51.17304 6.87781 7390 ft 251 kts 252°
2026-05-07 19:12 51.16744 6.85103 6865 ft 257 kts 252°
2026-05-07 19:12 51.16190 6.82461 6344 ft 248 kts 252°
2026-05-07 19:12 51.15657 6.79919 5884 ft 236 kts 252°
2026-05-07 19:12 51.15142 6.77463 5475 ft 235 kts 252°
2026-05-07 19:13 51.14630 6.75016 5072 ft 228 kts 252°
2026-05-07 19:13 51.14142 6.72671 4671 ft 218 kts 252°
2026-05-07 19:13 51.13678 6.70418 4268 ft 211 kts 252°
2026-05-07 19:13 51.13278 6.68476 3914 ft 201 kts 252°
2026-05-07 19:14 51.12866 6.66447 3525 ft 186 kts 252°
2026-05-07 19:14 51.12507 6.64685 3250 ft 177 kts 253°
2026-05-07 19:14 51.12412 6.62840 3108 ft 161 kts 294°
2026-05-07 19:14 51.13098 6.61557 3052 ft 154 kts 322°
2026-05-07 19:15 51.13901 6.60535 3020 ft 153 kts 322°
2026-05-07 19:15 51.14720 6.59512 2995 ft 146 kts 322°
2026-05-07 19:15 51.15513 6.58517 2995 ft 144 kts 322°
2026-05-07 19:15 51.16299 6.57532 2993 ft 144 kts 322°
2026-05-07 19:16 51.17079 6.56553 2984 ft 142 kts 324°
2026-05-07 19:16 51.17900 6.55708 2976 ft 140 kts 355°
2026-05-07 19:16 51.18785 6.56129 2975 ft 137 kts 53°
2026-05-07 19:16 51.19344 6.57348 2951 ft 140 kts 41°
2026-05-07 19:17 51.19943 6.58535 2806 ft 138 kts 60°
2026-05-07 19:17 51.20609 6.59609 2631 ft 138 kts 41°
2026-05-07 19:17 51.21240 6.60819 2169 ft 148 kts 59°
2026-05-07 19:17 51.21755 6.62167 2007 ft 135 kts 58°
2026-05-07 19:18 51.22291 6.63402 1919 ft 136 kts 52°
2026-05-07 19:18 51.22883 6.64575 1824 ft 135 kts 51°
2026-05-07 19:18 51.23474 6.65749 1690 ft 136 kts 52°
2026-05-07 19:18 51.24050 6.66950 1504 ft 137 kts 54°
2026-05-07 19:19 51.24555 6.68048 1328 ft 135 kts 54°
2026-05-07 19:19 51.25107 6.69250 1130 ft 134 kts 54°
2026-05-07 19:19 51.25658 6.70456 929 ft 134 kts 54°
2026-05-07 19:19 51.26232 6.71618 751 ft 131 kts 52°
2026-05-07 19:20 51.26772 6.72815 586 ft 133 kts 51°
2026-05-07 19:20 51.27364 6.73959 403 ft 134 kts 55°
2026-05-07 19:20 51.27922 6.75147 241 ft 134 kts 51°
2026-05-07 19:20 51.28477 6.76311 147 ft 127 kts 50°
2026-05-07 19:21 51.28874 6.77124 125 ft 45 kts 53°
2026-05-07 19:21 51.29013 6.77425 130 ft 27 kts 64°
2026-05-07 19:21 51.28995 6.77587 129 ft 2 kts 152°
2026-05-07 19:21 51.28973 6.77607 128 ft 3 kts 148°
2026-05-07 19:22 51.28940 6.77639 126 ft 8 kts 151°
2026-05-07 19:22 51.28894 6.77627 130 ft 8 kts 224°
2026-05-07 19:22 51.28850 6.77532 130 ft 13 kts 233°
2026-05-07 19:22 51.28784 6.77395 130 ft 18 kts 232°
2026-05-07 19:23 51.28700 6.77218 130 ft 22 kts 232°
2026-05-07 19:23 51.28628 6.77069 130 ft 16 kts 233°
2026-05-07 19:23 51.28563 6.76933 124 ft 11 kts 232°
2026-05-07 19:23 51.28508 6.76819 127 ft 16 kts 232°
2026-05-07 19:24 51.28435 6.76784 127 ft 10 kts 150°
2026-05-07 19:24 51.28379 6.76838 131 ft 4 kts 182°
2026-05-07 19:24 51.28362 6.76807 127 ft 5 kts 239°
2026-05-07 19:24 51.28355 6.76728 127 ft 9 kts 271°
2026-05-07 19:25 51.28324 6.76617 128 ft 13 kts 233°
2026-05-07 19:25 51.28282 6.76531 129 ft 6 kts 231°
2026-05-07 19:25 51.28275 6.76510 129 ft 2 kts 243°
2026-05-07 19:25 51.28260 6.76480 129 ft 5 kts 230°
2026-05-07 19:26 51.28231 6.76449 130 ft 2 kts 179°
2026-05-07 19:26 51.28209 6.76468 130 ft 5 kts 155°
2026-05-07 19:26 51.28182 6.76460 136 ft 6 kts 194°
2026-05-07 19:26 51.28155 6.76500 130 ft 7 kts 103°
2026-05-07 19:27 51.28151 6.76539 130 ft 3 kts 99°
2026-05-07 19:27 51.28149 6.76556 130 ft 0 kts 96°